Volver al catálogo

YZ-1S DEB

ActivoSSO
NORAD 49385·DEBRIS·🇨🇳 China

Lanzado Nov 3, 2021 desde Jiuquan Satellite Launch Center

Loading…

Próximos Pases (próximas 24 horas)

TLE

ActualizadoSource: Space-Track

Época: Sep 13, 2026, 10:48 UTC

1 49385U 21099C   26256.45068263  .00001990  00000-0  30254-3 0  9991
2 49385  98.2903  43.9860 0007893  76.2603 283.9483 14.75156187260148

Sigue YZ-1S DEB en tiempo real con AllMySat

Download on the App Store